Location: Krakow
(50.0830°N, 19.9170°E)
Time: 03:55:17
(UTC+01:00)

ISS - Visible Passes

Search period start: 25 January 2020 00:00
Search period end: 04 February 2020 00:00
Orbit: 415 x 423 km, 51.6° (Epoch: 25 January)

Date Brightness Start Highest point End Pass type
(mag) Time Alt. Az. Time Alt. Az. Time Alt. Az.
25 Jan -3.3 17:39:30 10° SW 17:42:47 49° SSE 17:44:31 24° E visible
25 Jan -1.2 19:16:11 10° W 19:17:29 21° W 19:17:29 21° W visible
26 Jan -2.7 16:52:14 10° SW 16:55:20 35° SSE 16:58:28 10° E visible
26 Jan -3.8 18:28:37 10° W 18:31:56 78° NNW 18:31:56 78° NNW visible
27 Jan -3.8 17:41:03 10° WSW 17:44:27 86° S 17:46:22 24° ENE visible
27 Jan -1.2 19:18:01 10° W 19:19:20 21° WNW 19:19:20 21° WNW visible
28 Jan -3.6 18:30:25 10° W 18:33:44 65° N 18:33:44 65° N visible
29 Jan -3.7 17:42:49 10° W 17:46:12 69° N 17:48:08 23° ENE visible
29 Jan -1.2 19:19:46 10° WNW 19:21:06 22° WNW 19:21:06 22° WNW visible
30 Jan -3.7 18:32:11 10° WNW 18:35:30 70° N 18:35:30 70° N visible
31 Jan -3.6 17:44:35 10° W 17:47:57 65° N 17:49:55 23° E visible
31 Jan -1.3 19:21:26 10° WNW 19:22:53 23° W 19:22:53 23° W visible
01 Feb -3.9 18:33:51 10° WNW 18:37:14 84° SSW 18:37:20 82° SSE visible
02 Feb -3.8 17:46:14 10° WNW 17:49:38 80° NNE 17:51:50 20° E visible
02 Feb -1.3 19:23:11 10° W 19:24:48 22° WSW 19:24:48 22° WSW visible
03 Feb -3.0 18:35:29 10° WNW 18:38:46 47° SSW 18:39:23 40° S visible
